Weather History for KWWD - April, 2013

Change the Weather History Date:

Monday, April 29, 2013

  Actual Average Record
Temperature  
Mean Temperature 55 °F -  
Max Temperature 57 °F 63 °F 77 °F (2003)
Min Temperature 53 °F 47 °F 37 °F (1999)
Degree Days  
Heating Degree Days 10    
Growing Degree Days 5 (Base 50)    
Moisture  
Dew Point 51 °F    
Average Humidity 87    
Maximum Humidity 94    
Minimum Humidity 67    
Precipitation  
Precipitation 0.95 in - - ()
Sea Level Pressure  
Sea Level Pressure 30.17 in    
Wind  
Wind Speed 11 mph (SE)    
Max Wind Speed 15 mph    
Max Gust Speed 22 mph    
Visibility 8 miles    
Events      
Averages and records for this station are not official NWS values.
T = Trace of Precipitation, MM = Missing Value Source: NWS Daily Summary

Daily Weather History Graph

Daily Weather History Graph

Search for Another Location

Airport or City:

Trip Planner

Search our weather history database for the weather conditions in past years. The results will help you decide how hot, cold, wet, or windy it might be!

Date:

Astronomy

Apr. 29, 2013 Rise Set
Actual Time 6:03 AM EDT 7:50 PM EDT
Civil Twilight 5:35 AM EDT 8:19 PM EDT
Nautical Twilight 5:00 AM EDT 8:54 PM EDT
Astronomical Twilight 4:23 AM EDT 9:31 PM EDT
Moon No Moon Rise 9:22 AM EDT (4/29)
Length of Visible Light 14h 44m
Length of Day
13h 46m
Waning Gibbous, 80% of the Moon is Illuminated
Apr 29
Waning Gibbous
May 2
Last Quarter
May 9
New
May 18
First Quarter
May 25
Full

Hourly Weather History & Observations

Time (EDT) Temp. Dew Point Humidity Pressure Visibility Wind Dir Wind Speed Gust Speed Precip Events Conditions
12:15 AM 55.4 °F 46.4 °F 72% 30.22 in 10.0 mi SE 9.2 mph - N/A   Partly Cloudy
12:35 AM 55.4 °F 46.4 °F 72% 30.21 in 10.0 mi SE 8.1 mph - N/A   Clear
12:55 AM 55.4 °F 46.4 °F 72% 30.21 in 10.0 mi SE 8.1 mph - N/A   Scattered Clouds
1:15 AM 57.2 °F 46.4 °F 67% 30.21 in 10.0 mi SE 9.2 mph - N/A   Mostly Cloudy
1:35 AM 55.4 °F 48.2 °F 77% 30.21 in 10.0 mi SSE 8.1 mph - N/A   Mostly Cloudy
1:55 AM 55.4 °F 48.2 °F 77% 30.20 in 10.0 mi SSE 8.1 mph - N/A   Overcast
2:15 AM 55.4 °F 48.2 °F 77% 30.20 in 10.0 mi SE 9.2 mph - 0.01 in   Mostly Cloudy
2:35 AM 53.6 °F 48.2 °F 82% 30.20 in 10.0 mi SE 10.4 mph - 0.01 in   Overcast
2:55 AM 53.6 °F 48.2 °F 82% 30.19 in 10.0 mi SE 10.4 mph - 0.02 in   Mostly Cloudy
3:15 AM 53.6 °F 48.2 °F 82% 30.19 in 10.0 mi SE 11.5 mph - 0.01 in   Overcast
3:35 AM 53.6 °F 48.2 °F 82% 30.18 in 10.0 mi SE 10.4 mph - 0.01 in   Overcast
3:55 AM 53.6 °F 48.2 °F 82% 30.18 in 10.0 mi SE 9.2 mph - 0.02 in   Overcast
4:15 AM 53.6 °F 48.2 °F 82% 30.18 in 10.0 mi SE 11.5 mph - 0.01 in   Overcast
4:35 AM 53.6 °F 48.2 °F 82% 30.18 in 9.0 mi SE 11.5 mph - 0.04 in   Overcast
4:55 AM 53.6 °F 48.2 °F 82% 30.18 in 7.0 mi SE 10.4 mph - 0.07 in   Overcast
5:15 AM 53.6 °F 48.2 °F 82% 30.19 in 5.0 mi SE 8.1 mph - 0.12 in   Overcast
5:35 AM 53.6 °F 48.2 °F 82% 30.19 in 8.0 mi ESE 5.8 mph - 0.18 in   Overcast
5:55 AM 53.6 °F 48.2 °F 82% 30.19 in 5.0 mi ESE 6.9 mph - 0.22 in   Overcast
6:15 AM 53.6 °F 50.0 °F 88% 30.19 in 7.0 mi ESE 10.4 mph - 0.04 in   Overcast
6:35 AM 53.6 °F 50.0 °F 88% 30.19 in 5.0 mi ESE 9.2 mph - 0.08 in   Overcast
6:55 AM 53.6 °F 50.0 °F 88% 30.20 in 3.0 mi ESE 8.1 mph - 0.15 in   Overcast
7:15 AM 53.6 °F 50.0 °F 88% 30.19 in 5.0 mi ESE 10.4 mph - 0.03 in   Overcast
7:35 AM 53.6 °F 51.8 °F 94% 30.19 in 7.0 mi ESE 11.5 mph 18.4 mph 0.04 in   Overcast
7:55 AM 53.6 °F 51.8 °F 94% 30.19 in 6.0 mi ESE 10.4 mph 18.4 mph 0.06 in   Overcast
8:15 AM 53.6 °F 51.8 °F 94% 30.19 in 7.0 mi ESE 13.8 mph 18.4 mph 0.01 in   Overcast
8:35 AM 53.6 °F 51.8 °F 94% 30.19 in 7.0 mi ESE 15.0 mph - 0.02 in   Overcast
8:55 AM 53.6 °F 51.8 °F 94% 30.19 in 5.0 mi SE 15.0 mph - 0.05 in   Overcast
9:15 AM 53.6 °F 51.8 °F 94% 30.19 in 7.0 mi ESE 15.0 mph 19.6 mph 0.01 in   Overcast
9:35 AM 55.4 °F 51.8 °F 88% 30.18 in 6.0 mi SE 12.7 mph - 0.02 in   Overcast
9:55 AM 55.4 °F 51.8 °F 88% 30.18 in 8.0 mi SE 12.7 mph 19.6 mph 0.03 in   Overcast
10:15 AM 55.4 °F 51.8 °F 88% 30.18 in 8.0 mi SE 13.8 mph 20.7 mph 0.01 in   Overcast
10:35 AM 55.4 °F 53.6 °F 94% 30.18 in 9.0 mi SE 12.7 mph - 0.01 in   Overcast
10:55 AM 55.4 °F 53.6 °F 94% 30.18 in 9.0 mi SE 15.0 mph - 0.01 in   Overcast
11:15 AM 55.4 °F 51.8 °F 88% 30.18 in 8.0 mi SE 15.0 mph 20.7 mph N/A   Overcast
11:35 AM 55.4 °F 53.6 °F 94% 30.18 in 10.0 mi SE 13.8 mph 20.7 mph N/A   Overcast
11:55 AM 55.4 °F 51.8 °F 88% 30.18 in 10.0 mi SE 12.7 mph 20.7 mph 0.01 in   Overcast
12:15 PM 55.4 °F 53.6 °F 94% 30.18 in 10.0 mi SE 15.0 mph - N/A   Overcast
12:35 PM 55.4 °F 51.8 °F 88% 30.17 in 10.0 mi SE 12.7 mph 18.4 mph N/A   Mostly Cloudy
12:55 PM 55.4 °F 53.6 °F 94% 30.16 in 9.0 mi SE 11.5 mph - N/A   Overcast
1:15 PM 55.4 °F 53.6 °F 94% 30.16 in 10.0 mi SE 15.0 mph - N/A   Overcast
1:35 PM 55.4 °F 53.6 °F 94% 30.16 in 10.0 mi SE 12.7 mph - N/A   Mostly Cloudy
1:55 PM 55.4 °F 53.6 °F 94% 30.15 in 10.0 mi SE 15.0 mph 20.7 mph N/A   Mostly Cloudy
2:15 PM 55.4 °F 53.6 °F 94% 30.15 in 10.0 mi SE 13.8 mph 21.9 mph 0.01 in   Mostly Cloudy
2:35 PM 55.4 °F 53.6 °F 94% 30.15 in 10.0 mi SE 15.0 mph - 0.01 in   Mostly Cloudy
2:55 PM 55.4 °F 53.6 °F 94% 30.15 in 10.0 mi SE 11.5 mph - 0.01 in   Mostly Cloudy
3:15 PM 55.4 °F 53.6 °F 94% 30.14 in 8.0 mi SE 12.7 mph - 0.02 in   Mostly Cloudy
3:35 PM 55.4 °F 53.6 °F 94% 30.14 in 7.0 mi ESE 11.5 mph 16.1 mph 0.04 in   Overcast
3:55 PM 55.4 °F 53.6 °F 94% 30.13 in 6.0 mi ESE 12.7 mph 16.1 mph 0.04 in   Overcast
4:15 PM 55.4 °F 53.6 °F 94% 30.13 in 7.0 mi ESE 13.8 mph 17.3 mph 0.02 in   Overcast
4:35 PM 55.4 °F 51.8 °F 88% 30.13 in 8.0 mi SE 12.7 mph - 0.03 in   Overcast
4:55 PM 55.4 °F 51.8 °F 88% 30.13 in 9.0 mi SE 12.7 mph - 0.06 in   Overcast
5:15 PM 55.4 °F 51.8 °F 88% 30.13 in 9.0 mi ESE 11.5 mph 17.3 mph 0.03 in   Overcast
5:35 PM 55.4 °F 51.8 °F 88% 30.13 in 8.0 mi ESE 10.4 mph - 0.05 in   Overcast
5:55 PM 55.4 °F 51.8 °F 88% 30.13 in 8.0 mi ESE 11.5 mph 16.1 mph 0.08 in   Overcast
6:15 PM 55.4 °F 51.8 °F 88% 30.14 in 9.0 mi ESE 11.5 mph 17.3 mph 0.02 in   Overcast
6:35 PM 55.4 °F 51.8 °F 88% 30.14 in 8.0 mi ESE 11.5 mph 16.1 mph 0.04 in   Overcast
6:55 PM 55.4 °F 51.8 °F 88% 30.14 in 8.0 mi ESE 13.8 mph - 0.06 in   Mostly Cloudy
7:15 PM 53.6 °F 51.8 °F 94% 30.14 in 9.0 mi SE 11.5 mph 17.3 mph 0.01 in   Overcast
7:35 PM 53.6 °F 51.8 °F 94% 30.14 in 9.0 mi SE 11.5 mph - 0.02 in   Mostly Cloudy
7:55 PM 53.6 °F 50.0 °F 88% 30.14 in 10.0 mi SE 11.5 mph - 0.03 in   Partly Cloudy
8:15 PM 53.6 °F 48.2 °F 82% 30.14 in 10.0 mi ESE 10.4 mph - 0.01 in   Clear
8:35 PM 53.6 °F 48.2 °F 82% 30.15 in 10.0 mi ESE 10.4 mph - 0.01 in   Scattered Clouds
8:55 PM 53.6 °F 50.0 °F 88% 30.15 in 10.0 mi ESE 10.4 mph - 0.01 in   Mostly Cloudy
9:15 PM 53.6 °F 48.2 °F 82% 30.15 in 10.0 mi East 8.1 mph - 0.01 in   Mostly Cloudy
9:35 PM 53.6 °F 50.0 °F 88% 30.16 in 10.0 mi East 8.1 mph - 0.01 in   Overcast
9:55 PM 53.6 °F 50.0 °F 88% 30.16 in 10.0 mi ESE 10.4 mph - 0.01 in   Overcast
10:15 PM 53.6 °F 50.0 °F 88% 30.16 in 10.0 mi ESE 9.2 mph - 0.01 in   Overcast
10:35 PM 53.6 °F 50.0 °F 88% 30.15 in 10.0 mi East 8.1 mph - 0.01 in   Overcast
10:55 PM 53.6 °F 50.0 °F 88% 30.15 in 10.0 mi East 8.1 mph - 0.01 in   Overcast
11:35 PM 53.6 °F 50.0 °F 88% 30.15 in 6.0 mi East 6.9 mph - N/A   Overcast
11:55 PM 53.6 °F 51.8 °F 94% 30.15 in 5.0 mi ENE 8.1 mph - N/A   Overcast